Location: Pallagorio
(39.3000°N, 16.9000°E)
Time: 19:05:34
(UTC+00:00)

Cosmos 990 Rocket - Pass Details

Date: 24 January 2021
Orbit: 748 x 768 km, 74.0° (Epoch: 02 March)

Event Time Altitude Azimuth Distance (km) Brightness Sun altitude
Rises 16:48:14 0° 186° (S) 3,210 7.5 -8.9°
Reaches altitude 10° 16:50:37 10° 182° (S) 2,286 6.7 -9.3°
Maximum altitude 16:55:42 57° 104° (ESE) 891 4.1 -10.3°
Drops below altitude 10° 17:00:46 10° 27° (NNE) 2,288 6.1 -11.2°
Enters shadow 17:02:44 - 24° (NNE) 3,050 6.7 -11.6°
